Hourly Data Report for April 21, 2016

All times are specified in Local Standard Time (LST). Add 1 hour to adjust for Daylight Saving Time where and when it is observed.

EMERSON AUTO
MANITOBA

49°00'00.000" N
97°14'15.000" W
242.00 m
5020881
71560
WEX

Download Data

Hourly Data (April 2016)
Hourly Data Report for April 21, 2016
Temp Definition
°C
Dew Point Temp Definition
°C
Rel Hum Definition
%
Wind Dir Definition
10's deg

Wind Spd Definition
km/h
Visibility Definition
km
Stn Press Definition
kPa
Hmdx Definition


Wind Chill Definition


Weather Definition


TIME
00:00 11.0 6.7 75 1 35   98.27     LegendNANA
01:00 9.4 4.7 72 36 34   98.37     LegendNANA
02:00 6.6 3.5 81 35 38   98.46     LegendNANA
03:00 5.0 2.2 82 35 39   98.54     LegendNANA
04:00 3.8 1.1 83 35 37   98.64     LegendNANA
05:00 2.2 0.2 86 35 36   98.73     LegendNANA
06:00 1.1 -0.4 90 35 32   98.85     LegendNANA
07:00 1.2 -1.0 85 36 40   98.94     LegendNANA
08:00 1.4 -1.0 84 1 37   99.00     LegendNANA
09:00 2.3 -0.7 80 35 39   99.03     LegendNANA
10:00 3.2 0.3 81 36 39   99.07     LegendNANA
11:00 4.2 0.5 77 36 33   99.11     LegendNANA
12:00 4.7 1.0 77 36 34   99.11     LegendNANA
13:00 5.7 1.6 75 36 32   99.11     LegendNANA
14:00 6.5 2.5 75 35 32   99.13     LegendNANA
15:00 7.0 2.1 71 1 28   99.11     LegendNANA
16:00 7.5 2.6 71 1 27   99.11     LegendNANA
17:00 7.3 1.3 66 1 25   99.16     LegendNANA
18:00 6.6 -0.8 59 2 23   99.18     LegendNANA
19:00 5.7 -1.3 60 2 18   99.20     LegendNANA
20:00 4.3 -2.0 64 2 13   99.24     LegendNANA
21:00 2.9 -3.2 64 2 15   99.29     LegendNANA
22:00 1.1 -2.6 77 36 11   99.34     LegendNANA
23:00 1.0 -3.9 70 1 12   99.36     LegendNANA

Notes on Data Quality.

Legend

  • E = Estimated
  • M = Missing
  • NA = Not Available
  • ‡ = Partner data that is not subject to review by the National Climate Archives
Date modified: